KLM4YM LIEO-LIMJ

Flight info

Callsign KLM4YM
Flight time 0h 44m
Altitude 30000
Route OKIVA P980 DIKEL/N0379F180 P980 MEGER Z911 OLETI M858 UNITA
Aircraft B737/M-SDE2E3FGHIRWXY/LB1

Departure

Time 2026-04-15 07:45
Airport Olbia Costa Smeralda Airport (LIEO)

Arrival

Time 2026-04-15 08:30
Airport Genoa Cristoforo Colombo Airport (LIMJ)
Time Latitude Longitude Altitude Speed Heading
2026-04-15 07:12 40.90198 9.51575 34 ft 0 kts 325°
2026-04-15 07:33 40.90197 9.51575 34 ft 2 kts 325°
2026-04-15 07:34 40.90178 9.51595 34 ft 4 kts 314°
2026-04-15 07:34 40.90163 9.51623 33 ft 4 kts 283°
2026-04-15 07:34 40.90164 9.51648 34 ft 1 kts 235°
2026-04-15 07:38 40.90160 9.51640 34 ft 7 kts 235°
2026-04-15 07:38 40.90114 9.51552 33 ft 14 kts 236°
2026-04-15 07:38 40.90071 9.51477 33 ft 0 kts 211°
2026-04-15 07:39 40.90043 9.51492 34 ft 12 kts 149°
2026-04-15 07:39 40.89955 9.51516 31 ft 15 kts 205°
2026-04-15 07:39 40.89886 9.51411 32 ft 15 kts 234°
2026-04-15 07:39 40.89829 9.51300 33 ft 14 kts 238°
2026-04-15 07:40 40.89776 9.51192 34 ft 14 kts 231°
2026-04-15 07:40 40.89718 9.51095 35 ft 13 kts 234°
2026-04-15 07:40 40.89666 9.50998 34 ft 13 kts 234°
2026-04-15 07:40 40.89617 9.50903 35 ft 12 kts 238°
2026-04-15 07:41 40.89571 9.50808 35 ft 12 kts 236°
2026-04-15 07:41 40.89522 9.50716 35 ft 13 kts 233°
2026-04-15 07:41 40.89462 9.50606 33 ft 16 kts 234°
2026-04-15 07:41 40.89406 9.50494 36 ft 9 kts 240°
2026-04-15 07:42 40.89383 9.50457 36 ft 0 kts 212°
2026-04-15 07:44 40.89371 9.50450 35 ft 7 kts 204°
2026-04-15 07:44 40.89296 9.50456 34 ft 17 kts 143°
2026-04-15 07:44 40.89271 9.50622 28 ft 21 kts 68°
2026-04-15 07:44 40.89295 9.50671 26 ft 0 kts 53°
2026-04-15 07:45 40.89299 9.50680 28 ft 15 kts 56°
2026-04-15 07:45 40.89517 9.51088 29 ft 90 kts 54°
2026-04-15 07:45 40.89988 9.52004 48 ft 144 kts 52°
2026-04-15 07:45 40.90485 9.53157 688 ft 142 kts 59°
2026-04-15 07:46 40.91048 9.54274 1206 ft 158 kts 50°
2026-04-15 07:46 40.91751 9.55505 1590 ft 176 kts 47°
2026-04-15 07:46 40.92533 9.56919 1968 ft 206 kts 50°
2026-04-15 07:46 40.93436 9.58538 2305 ft 226 kts 51°
2026-04-15 07:47 40.94340 9.60237 3002 ft 228 kts 51°
2026-04-15 07:47 40.95258 9.61960 3751 ft 229 kts 51°
2026-04-15 07:47 40.96177 9.63683 4544 ft 231 kts 52°
2026-04-15 07:47 40.97161 9.65356 5499 ft 230 kts 40°
2026-04-15 07:48 40.98057 9.66088 6146 ft 231 kts 21°
2026-04-15 07:48 40.99685 9.66396 6946 ft 250 kts 356°
2026-04-15 07:48 41.01392 9.65633 7662 ft 269 kts 334°
2026-04-15 07:48 41.02994 9.64256 8599 ft 277 kts 328°
2026-04-15 07:49 41.04585 9.62769 9629 ft 283 kts 328°
2026-04-15 07:49 41.06221 9.61254 10528 ft 293 kts 329°
2026-04-15 07:49 41.07951 9.59623 10926 ft 320 kts 323°
2026-04-15 07:49 41.09513 9.57302 11030 ft 351 kts 309°
2026-04-15 07:50 41.10949 9.54637 11016 ft 357 kts 308°
2026-04-15 07:50 41.12355 9.51932 11018 ft 355 kts 307°
2026-04-15 07:50 41.13745 9.49277 11017 ft 354 kts 308°
2026-04-15 07:50 41.15163 9.46610 11015 ft 354 kts 308°
2026-04-15 07:51 41.16591 9.43957 11011 ft 353 kts 308°
2026-04-15 07:51 41.18043 9.41279 11018 ft 353 kts 309°
2026-04-15 07:51 41.19459 9.38674 11021 ft 353 kts 309°
2026-04-15 07:51 41.20894 9.36036 11028 ft 353 kts 309°
2026-04-15 07:52 41.22329 9.33394 11029 ft 353 kts 308°
2026-04-15 07:52 41.23715 9.30683 11030 ft 355 kts 306°
2026-04-15 07:52 41.25037 9.27919 11031 ft 355 kts 305°
2026-04-15 07:52 41.26353 9.25129 11033 ft 356 kts 305°
2026-04-15 07:53 41.27673 9.22346 11033 ft 356 kts 305°
2026-04-15 07:53 41.29000 9.19569 11084 ft 358 kts 305°
2026-04-15 07:53 41.30350 9.16758 12003 ft 359 kts 305°
2026-04-15 07:53 41.31725 9.13995 13149 ft 357 kts 311°
2026-04-15 07:54 41.33593 9.11885 14134 ft 353 kts 334°
2026-04-15 07:54 41.35897 9.10789 15028 ft 354 kts 353°
2026-04-15 07:54 41.38363 9.10635 15919 ft 356 kts
2026-04-15 07:54 41.40863 9.10747 16816 ft 362 kts
2026-04-15 07:55 41.43398 9.10900 17662 ft 368 kts
2026-04-15 07:55 41.45985 9.11045 18486 ft 374 kts
2026-04-15 07:55 41.51220 9.11271 20028 ft 383 kts
2026-04-15 07:56 41.53900 9.11372 20788 ft 387 kts
2026-04-15 07:56 41.56610 9.11444 21522 ft 392 kts
2026-04-15 07:56 41.59354 9.11442 22256 ft 397 kts
2026-04-15 07:56 41.62130 9.11405 22975 ft 402 kts
2026-04-15 07:57 41.64951 9.11361 23586 ft 408 kts
2026-04-15 07:57 41.67801 9.11320 24158 ft 412 kts
2026-04-15 07:57 41.70685 9.11283 24730 ft 416 kts
2026-04-15 07:57 41.73593 9.11251 25312 ft 419 kts
2026-04-15 07:58 41.76525 9.11224 25881 ft 423 kts
2026-04-15 07:58 41.79481 9.11198 26407 ft 427 kts
2026-04-15 07:58 41.82473 9.11173 26927 ft 431 kts
2026-04-15 07:58 41.85477 9.11145 27385 ft 436 kts
2026-04-15 07:59 41.88541 9.11120 27753 ft 443 kts
2026-04-15 07:59 41.91631 9.11094 28276 ft 445 kts
2026-04-15 07:59 41.94740 9.11067 28806 ft 447 kts
2026-04-15 07:59 41.97860 9.11036 29396 ft 448 kts
2026-04-15 08:00 42.00968 9.11008 30022 ft 448 kts
2026-04-15 08:00 42.07230 9.10957 30039 ft 448 kts
2026-04-15 08:01 42.13411 9.10905 30059 ft 448 kts
2026-04-15 08:01 42.19649 9.10854 30048 ft 449 kts
2026-04-15 08:02 42.25903 9.10801 30039 ft 449 kts
2026-04-15 08:02 42.32131 9.10747 30055 ft 447 kts
2026-04-15 08:03 42.38348 9.10693 30052 ft 445 kts
2026-04-15 08:03 42.44536 9.10638 30058 ft 445 kts
2026-04-15 08:04 42.50724 9.10585 30065 ft 444 kts
2026-04-15 08:04 42.56918 9.10533 29990 ft 446 kts
2026-04-15 08:04 42.60024 9.10507 29677 ft 446 kts
2026-04-15 08:05 42.63085 9.10480 29402 ft 446 kts
2026-04-15 08:05 42.66199 9.10454 29126 ft 447 kts
2026-04-15 08:05 42.69299 9.10427 28850 ft 444 kts
2026-04-15 08:05 42.72381 9.10412 28575 ft 442 kts
2026-04-15 08:06 42.75449 9.10615 28305 ft 440 kts
2026-04-15 08:06 42.78500 9.10964 28039 ft 440 kts
2026-04-15 08:06 42.81541 9.11366 27775 ft 440 kts
2026-04-15 08:06 42.84587 9.11773 27509 ft 439 kts
2026-04-15 08:07 42.87626 9.12167 27240 ft 438 kts
2026-04-15 08:07 42.90654 9.12545 26980 ft 436 kts
2026-04-15 08:07 42.93664 9.12909 26720 ft 433 kts
2026-04-15 08:07 42.96650 9.13264 26469 ft 430 kts
2026-04-15 08:08 42.99622 9.13614 26211 ft 427 kts
2026-04-15 08:08 43.02576 9.13961 25960 ft 425 kts
2026-04-15 08:08 43.05474 9.14303 25715 ft 423 kts
2026-04-15 08:08 43.08406 9.14650 25464 ft 421 kts
2026-04-15 08:09 43.11316 9.14995 25225 ft 419 kts
2026-04-15 08:09 43.14219 9.15339 24982 ft 418 kts
2026-04-15 08:09 43.17116 9.15683 24742 ft 417 kts
2026-04-15 08:09 43.20005 9.16026 24496 ft 415 kts
2026-04-15 08:10 43.22874 9.16367 24270 ft 414 kts
2026-04-15 08:10 43.25747 9.16710 24036 ft 413 kts
2026-04-15 08:10 43.28605 9.17051 23794 ft 412 kts
2026-04-15 08:10 43.31467 9.17356 23546 ft 412 kts
2026-04-15 08:11 43.34332 9.17179 23266 ft 413 kts 354°
2026-04-15 08:11 43.37141 9.16385 23002 ft 413 kts 348°
2026-04-15 08:11 43.39929 9.15402 22731 ft 412 kts 347°
2026-04-15 08:11 43.42700 9.14394 22465 ft 411 kts 347°
2026-04-15 08:12 43.45459 9.13392 22193 ft 410 kts 347°
2026-04-15 08:12 43.48210 9.12406 21922 ft 408 kts 347°
2026-04-15 08:12 43.50950 9.11436 21661 ft 405 kts 347°
2026-04-15 08:12 43.53676 9.10479 21400 ft 403 kts 348°
2026-04-15 08:13 43.56382 9.09533 21149 ft 401 kts 348°
2026-04-15 08:13 43.59083 9.08590 20889 ft 399 kts 347°
2026-04-15 08:13 43.61760 9.07653 20640 ft 396 kts 348°
2026-04-15 08:13 43.64406 9.06724 20388 ft 390 kts 348°
2026-04-15 08:14 43.67032 9.05806 20136 ft 389 kts 348°
2026-04-15 08:14 43.69660 9.04886 19889 ft 388 kts 347°
2026-04-15 08:14 43.72269 9.03971 19653 ft 387 kts 348°
2026-04-15 08:14 43.74836 9.03067 19415 ft 385 kts 348°
2026-04-15 08:15 43.77426 9.02157 19173 ft 383 kts 348°
2026-04-15 08:15 43.80022 9.01330 18587 ft 383 kts 352°
2026-04-15 08:15 43.82648 9.01041 17896 ft 375 kts
2026-04-15 08:15 43.85219 9.01312 17218 ft 367 kts
2026-04-15 08:16 43.87752 9.01663 16510 ft 363 kts
2026-04-15 08:16 43.90253 9.01992 15824 ft 359 kts
2026-04-15 08:16 43.92717 9.02380 15132 ft 355 kts 13°
2026-04-15 08:16 43.94993 9.03631 14474 ft 351 kts 31°
2026-04-15 08:17 43.96893 9.05727 13806 ft 348 kts 43°
2026-04-15 08:17 43.98598 9.08086 13064 ft 345 kts 45°
2026-04-15 08:17 44.00271 9.10459 12343 ft 343 kts 45°
2026-04-15 08:17 44.01939 9.12789 11694 ft 340 kts 45°
2026-04-15 08:18 44.03572 9.15042 11558 ft 321 kts 45°
2026-04-15 08:18 44.05129 9.17188 11315 ft 308 kts 45°
2026-04-15 08:18 44.06614 9.19237 11175 ft 294 kts 45°
2026-04-15 08:18 44.08041 9.21193 11046 ft 281 kts 41°
2026-04-15 08:19 44.09670 9.22510 10948 ft 267 kts 17°
2026-04-15 08:19 44.11476 9.22764 10772 ft 260 kts 355°
2026-04-15 08:19 44.13218 9.22107 10464 ft 261 kts 337°
2026-04-15 08:19 44.14679 9.20671 10150 ft 262 kts 319°
2026-04-15 08:20 44.15975 9.18890 9808 ft 262 kts 317°
2026-04-15 08:20 44.17250 9.17090 9456 ft 260 kts 317°
2026-04-15 08:20 44.18766 9.15751 8902 ft 261 kts 348°
2026-04-15 08:20 44.20536 9.15759 8532 ft 255 kts 17°
2026-04-15 08:21 44.22116 9.16836 8197 ft 252 kts 35°
2026-04-15 08:21 44.23529 9.18267 7857 ft 250 kts 37°
2026-04-15 08:21 44.24953 9.19639 7533 ft 249 kts 35°
2026-04-15 08:21 44.26400 9.20888 7330 ft 243 kts 32°
2026-04-15 08:22 44.27878 9.22020 7162 ft 239 kts 29°
2026-04-15 08:22 44.29385 9.23002 6934 ft 240 kts 22°
2026-04-15 08:22 44.31039 9.23146 6734 ft 247 kts 347°
2026-04-15 08:22 44.32483 9.21843 6393 ft 254 kts 310°
2026-04-15 08:23 44.33374 9.19676 6059 ft 259 kts 296°
2026-04-15 08:23 44.34028 9.17346 6088 ft 257 kts 290°
2026-04-15 08:23 44.34573 9.14927 6088 ft 265 kts 287°
2026-04-15 08:23 44.35098 9.12456 6080 ft 265 kts 288°
2026-04-15 08:24 44.35624 9.09998 6074 ft 263 kts 288°
2026-04-15 08:24 44.36160 9.07521 5717 ft 273 kts 289°
2026-04-15 08:24 44.36716 9.04960 5216 ft 277 kts 289°
2026-04-15 08:24 44.37273 9.02392 4598 ft 274 kts 290°
2026-04-15 08:25 44.37823 8.99853 3829 ft 270 kts 290°
2026-04-15 08:25 44.38360 8.97385 3078 ft 262 kts 291°
2026-04-15 08:25 44.38885 8.94977 2317 ft 256 kts 290°
2026-04-15 08:25 44.39392 8.92658 1861 ft 240 kts 289°
2026-04-15 08:26 44.39781 8.90533 1660 ft 218 kts 274°
2026-04-15 08:26 44.39458 8.88573 1529 ft 200 kts 245°
2026-04-15 08:26 44.38828 8.86944 1460 ft 182 kts 243°
2026-04-15 08:26 44.38262 8.85447 1316 ft 167 kts 244°
2026-04-15 08:27 44.37997 8.83970 1278 ft 155 kts 277°
2026-04-15 08:27 44.38206 8.82482 1274 ft 156 kts 283°
2026-04-15 08:27 44.38441 8.81018 1303 ft 152 kts 283°
2026-04-15 08:27 44.38659 8.79639 1282 ft 142 kts 283°
2026-04-15 08:28 44.38879 8.78309 1166 ft 141 kts 288°
2026-04-15 08:28 44.39491 8.77332 1094 ft 136 kts 340°
2026-04-15 08:28 44.40419 8.77413 1017 ft 138 kts 24°
2026-04-15 08:28 44.41200 8.78132 854 ft 133 kts 45°
2026-04-15 08:29 44.41739 8.79164 620 ft 131 kts 62°
2026-04-15 08:29 44.41879 8.80423 425 ft 139 kts 92°
2026-04-15 08:29 44.41665 8.81749 196 ft 140 kts 101°
2026-04-15 08:29 44.41418 8.83037 37 ft 134 kts 102°
2026-04-15 08:30 44.41167 8.84320 23 ft 137 kts 100°
2026-04-15 08:30 44.40952 8.85389 20 ft 53 kts 109°
2026-04-15 08:30 44.40928 8.85519 21 ft 8 kts 333°
2026-04-15 08:30 44.40967 8.85360 18 ft 23 kts 281°
2026-04-15 08:31 44.41038 8.85188 16 ft 13 kts
2026-04-15 08:31 44.41128 8.85243 19 ft 17 kts 16°
2026-04-15 08:31 44.41173 8.85257 19 ft 0 kts 15°
2026-04-15 08:33 44.41174 8.85258 19 ft 0 kts 16°
2026-04-15 08:33 44.41222 8.85280 19 ft 13 kts 19°
2026-04-15 08:33 44.41293 8.85238 19 ft 12 kts 307°
2026-04-15 08:33 44.41324 8.85107 19 ft 21 kts 284°
2026-04-15 08:34 44.41355 8.84931 19 ft 21 kts 285°
2026-04-15 08:34 44.41379 8.84824 19 ft 6 kts 301°
2026-04-15 08:34 44.41393 8.84833 20 ft 6 kts 71°
2026-04-15 08:34 44.41413 8.84906 19 ft 11 kts 63°
2026-04-15 08:35 44.41434 8.84956 19 ft 0 kts 58°
2026-04-15 08:39 44.41392 8.85097 19 ft 0 kts 15°